AAL3171 KDAB-KCLT

Flight info

Callsign AAL3171
Flight time 1h 9m
Altitude 37000
Route ROYES7 CRG VIYAP CHECR STOCR4
Aircraft A319/M-SDE3FGHIRWY/LB1

Departure

Time 2026-04-23 18:02
Airport Daytona Beach International Airport (KDAB)

Arrival

Time 2026-04-23 19:12
Airport Charlotte Douglas International Airport (KCLT)
Time Latitude Longitude Altitude Speed Heading
2026-04-23 17:35 29.18388 -81.06133 31 ft 0 kts 98°
2026-04-23 17:52 29.18388 -81.06138 31 ft 2 kts 100°
2026-04-23 17:52 29.18394 -81.06171 31 ft 2 kts 100°
2026-04-23 17:52 29.18396 -81.06188 31 ft 2 kts 99°
2026-04-23 17:53 29.18402 -81.06201 31 ft 0 kts 183°
2026-04-23 17:53 29.18407 -81.06200 31 ft 1 kts 194°
2026-04-23 17:53 29.18410 -81.06199 31 ft 0 kts 192°
2026-04-23 17:55 29.18409 -81.06199 31 ft 0 kts 191°
2026-04-23 17:56 29.18398 -81.06201 31 ft 2 kts 191°
2026-04-23 17:56 29.18255 -81.06230 31 ft 14 kts 189°
2026-04-23 17:56 29.18175 -81.06190 31 ft 13 kts 153°
2026-04-23 17:57 29.18090 -81.06145 31 ft 13 kts 181°
2026-04-23 17:57 29.18036 -81.06224 31 ft 13 kts 245°
2026-04-23 17:57 29.17921 -81.06512 31 ft 23 kts 247°
2026-04-23 17:58 29.17852 -81.06681 31 ft 23 kts 245°
2026-04-23 17:58 29.17782 -81.06848 31 ft 24 kts 245°
2026-04-23 17:58 29.17711 -81.07026 31 ft 24 kts 244°
2026-04-23 17:58 29.17638 -81.07199 31 ft 24 kts 244°
2026-04-23 17:59 29.17571 -81.07374 31 ft 23 kts 242°
2026-04-23 17:59 29.17490 -81.07540 31 ft 23 kts 240°
2026-04-23 17:59 29.17448 -81.07619 31 ft 0 kts 232°
2026-04-23 18:01 29.17442 -81.07628 31 ft 3 kts 232°
2026-04-23 18:01 29.17411 -81.07656 31 ft 8 kts 198°
2026-04-23 18:01 29.17342 -81.07638 31 ft 12 kts 159°
2026-04-23 18:01 29.17335 -81.07583 31 ft 4 kts 63°
2026-04-23 18:02 29.17356 -81.07527 31 ft 29 kts 66°
2026-04-23 18:02 29.17564 -81.07013 32 ft 110 kts 66°
2026-04-23 18:02 29.17980 -81.05991 101 ft 166 kts 66°
2026-04-23 18:02 29.18478 -81.04806 857 ft 168 kts 64°
2026-04-23 18:03 29.19003 -81.03690 1871 ft 159 kts 63°
2026-04-23 18:03 29.19542 -81.02582 2538 ft 169 kts 63°
2026-04-23 18:03 29.20138 -81.01350 3105 ft 186 kts 63°
2026-04-23 18:03 29.20790 -81.00002 3677 ft 203 kts 63°
2026-04-23 18:04 29.21509 -80.98525 4254 ft 221 kts 60°
2026-04-23 18:04 29.22643 -80.97257 4720 ft 249 kts 26°
2026-04-23 18:04 29.24431 -80.96971 5312 ft 273 kts 350°
2026-04-23 18:04 29.26140 -80.97942 6062 ft 286 kts 315°
2026-04-23 18:05 29.27266 -80.99808 7044 ft 287 kts 297°
2026-04-23 18:05 29.28193 -81.01820 7989 ft 292 kts 297°
2026-04-23 18:05 29.29199 -81.03840 8910 ft 297 kts 300°
2026-04-23 18:05 29.30297 -81.05832 9823 ft 301 kts 302°
2026-04-23 18:06 29.31483 -81.07832 10687 ft 307 kts 304°
2026-04-23 18:06 29.32729 -81.09849 11261 ft 322 kts 305°
2026-04-23 18:06 29.34051 -81.11938 12072 ft 327 kts 305°
2026-04-23 18:06 29.35387 -81.14026 13023 ft 327 kts 305°
2026-04-23 18:07 29.36731 -81.16119 13953 ft 327 kts 306°
2026-04-23 18:07 29.38075 -81.18211 14797 ft 329 kts 306°
2026-04-23 18:07 29.39443 -81.20341 15467 ft 336 kts 306°
2026-04-23 18:07 29.40838 -81.22509 16152 ft 342 kts 306°
2026-04-23 18:08 29.41784 -81.23981 16655 ft 344 kts 306°
2026-04-23 18:08 29.43681 -81.26931 17600 ft 349 kts 306°
2026-04-23 18:08 29.45119 -81.29170 18292 ft 353 kts 306°
2026-04-23 18:08 29.46581 -81.31443 18990 ft 356 kts 306°
2026-04-23 18:09 29.48047 -81.33727 19673 ft 359 kts 306°
2026-04-23 18:09 29.49521 -81.36026 20332 ft 361 kts 306°
2026-04-23 18:09 29.51021 -81.38366 21001 ft 364 kts 306°
2026-04-23 18:09 29.52562 -81.40686 21631 ft 367 kts 311°
2026-04-23 18:10 29.54551 -81.42477 22202 ft 373 kts 330°
2026-04-23 18:10 29.57040 -81.43426 22813 ft 380 kts 349°
2026-04-23 18:10 29.59651 -81.43715 23489 ft 382 kts 353°
2026-04-23 18:10 29.62343 -81.43964 24074 ft 385 kts 353°
2026-04-23 18:11 29.65015 -81.44214 24614 ft 389 kts 353°
2026-04-23 18:11 29.67740 -81.44473 25139 ft 393 kts 353°
2026-04-23 18:11 29.70479 -81.44735 25657 ft 396 kts 353°
2026-04-23 18:11 29.73214 -81.45000 26163 ft 400 kts 353°
2026-04-23 18:12 29.76003 -81.45271 26659 ft 403 kts 353°
2026-04-23 18:12 29.78810 -81.45545 27165 ft 405 kts 353°
2026-04-23 18:12 29.81629 -81.45820 27639 ft 408 kts 353°
2026-04-23 18:12 29.84468 -81.46098 28097 ft 411 kts 353°
2026-04-23 18:13 29.87330 -81.46379 28534 ft 414 kts 353°
2026-04-23 18:13 29.90236 -81.46664 28970 ft 417 kts 353°
2026-04-23 18:13 29.93139 -81.46951 29393 ft 420 kts 353°
2026-04-23 18:13 29.96038 -81.47237 29797 ft 423 kts 353°
2026-04-23 18:14 29.99001 -81.47529 30206 ft 425 kts 353°
2026-04-23 18:14 30.01955 -81.47819 30606 ft 428 kts 354°
2026-04-23 18:14 30.04933 -81.48114 30982 ft 430 kts 354°
2026-04-23 18:14 30.07898 -81.48407 31357 ft 432 kts 354°
2026-04-23 18:15 30.10907 -81.48703 31821 ft 432 kts 353°
2026-04-23 18:15 30.13914 -81.49000 32354 ft 430 kts 354°
2026-04-23 18:15 30.16889 -81.49295 32873 ft 428 kts 354°
2026-04-23 18:15 30.19842 -81.49586 33354 ft 426 kts 354°
2026-04-23 18:16 30.22779 -81.49879 33806 ft 425 kts 354°
2026-04-23 18:16 30.25701 -81.50169 34276 ft 424 kts 354°
2026-04-23 18:16 30.28643 -81.50459 34748 ft 422 kts 353°
2026-04-23 18:17 30.34498 -81.50806 35635 ft 421 kts 359°
2026-04-23 18:17 30.37448 -81.50697 35989 ft 422 kts
2026-04-23 18:17 30.40388 -81.50475 36302 ft 423 kts
2026-04-23 18:17 30.43322 -81.50236 36596 ft 424 kts
2026-04-23 18:18 30.46262 -81.49992 36873 ft 425 kts
2026-04-23 18:18 30.49218 -81.49749 37097 ft 427 kts
2026-04-23 18:18 30.55158 -81.49265 37107 ft 428 kts
2026-04-23 18:19 30.61090 -81.48783 37111 ft 427 kts
2026-04-23 18:19 30.67036 -81.48300 37111 ft 427 kts
2026-04-23 18:20 30.72944 -81.47819 37111 ft 427 kts
2026-04-23 18:20 30.78892 -81.47337 37100 ft 427 kts
2026-04-23 18:21 30.84831 -81.46853 37096 ft 427 kts
2026-04-23 18:21 30.90771 -81.46371 37093 ft 427 kts
2026-04-23 18:22 30.96747 -81.45884 37094 ft 427 kts
2026-04-23 18:22 31.02679 -81.45401 37100 ft 426 kts
2026-04-23 18:23 31.11610 -81.44670 37106 ft 426 kts
2026-04-23 18:24 31.20504 -81.43883 37108 ft 426 kts
2026-04-23 18:25 31.29256 -81.41839 37110 ft 428 kts 15°
2026-04-23 18:25 31.34967 -81.39620 37110 ft 427 kts 18°
2026-04-23 18:26 31.40563 -81.37333 37104 ft 426 kts 18°
2026-04-23 18:26 31.46201 -81.35028 37095 ft 426 kts 18°
2026-04-23 18:27 31.51751 -81.32761 37099 ft 426 kts 18°
2026-04-23 18:27 31.57410 -81.30447 37092 ft 425 kts 18°
2026-04-23 18:28 31.62984 -81.28166 37090 ft 425 kts 18°
2026-04-23 18:28 31.68573 -81.25876 37094 ft 425 kts 18°
2026-04-23 18:29 31.74148 -81.23590 37096 ft 424 kts 18°
2026-04-23 18:29 31.79714 -81.21306 37089 ft 424 kts 18°
2026-04-23 18:30 31.85261 -81.19025 37096 ft 423 kts 18°
2026-04-23 18:30 31.90834 -81.16730 37103 ft 423 kts 18°
2026-04-23 18:31 31.96426 -81.14424 37098 ft 422 kts 18°
2026-04-23 18:31 32.01969 -81.12136 37096 ft 422 kts 18°
2026-04-23 18:32 32.07492 -81.09853 37096 ft 422 kts 18°
2026-04-23 18:32 32.13040 -81.07557 37097 ft 422 kts 18°
2026-04-23 18:33 32.18587 -81.05258 37092 ft 422 kts 18°
2026-04-23 18:33 32.24149 -81.02951 37091 ft 422 kts 18°
2026-04-23 18:34 32.29693 -81.00648 37098 ft 421 kts 18°
2026-04-23 18:34 32.35193 -80.98360 37095 ft 421 kts 18°
2026-04-23 18:35 32.40730 -80.96054 37091 ft 421 kts 18°
2026-04-23 18:35 32.46243 -80.93755 37086 ft 421 kts 18°
2026-04-23 18:36 32.51788 -80.91439 37083 ft 421 kts 18°
2026-04-23 18:36 32.57317 -80.89127 37083 ft 421 kts 18°
2026-04-23 18:37 32.62896 -80.86791 37083 ft 420 kts 18°
2026-04-23 18:37 32.68464 -80.84457 37071 ft 420 kts 18°
2026-04-23 18:38 32.73992 -80.82147 37072 ft 420 kts 17°
2026-04-23 18:38 32.79583 -80.79856 37073 ft 420 kts 17°
2026-04-23 18:39 32.85150 -80.77589 37073 ft 420 kts 17°
2026-04-23 18:39 32.90680 -80.75334 37075 ft 420 kts 17°
2026-04-23 18:40 32.96182 -80.73083 37077 ft 419 kts 17°
2026-04-23 18:40 33.01714 -80.70814 37070 ft 419 kts 17°
2026-04-23 18:41 33.07207 -80.68548 37063 ft 419 kts 17°
2026-04-23 18:41 33.12708 -80.66277 37058 ft 419 kts 17°
2026-04-23 18:42 33.18234 -80.63986 37051 ft 419 kts 17°
2026-04-23 18:42 33.23744 -80.61705 37045 ft 419 kts 17°
2026-04-23 18:43 33.29250 -80.59435 37046 ft 418 kts 17°
2026-04-23 18:43 33.34718 -80.57175 37049 ft 418 kts 17°
2026-04-23 18:44 33.40219 -80.54903 37045 ft 418 kts 17°
2026-04-23 18:44 33.45724 -80.52686 37017 ft 416 kts 14°
2026-04-23 18:44 33.48515 -80.51753 36504 ft 418 kts 15°
2026-04-23 18:45 33.51244 -80.50436 35285 ft 431 kts 25°
2026-04-23 18:45 33.53814 -80.48550 34143 ft 441 kts 34°
2026-04-23 18:45 33.56159 -80.46169 33496 ft 441 kts 42°
2026-04-23 18:45 33.58167 -80.43447 32912 ft 441 kts 50°
2026-04-23 18:46 33.59895 -80.40421 32347 ft 439 kts 54°
2026-04-23 18:46 33.61520 -80.37358 31761 ft 437 kts 56°
2026-04-23 18:46 33.63141 -80.34271 31098 ft 437 kts 56°
2026-04-23 18:46 33.64753 -80.31208 30589 ft 433 kts 56°
2026-04-23 18:47 33.66353 -80.28185 30131 ft 428 kts 56°
2026-04-23 18:47 33.67932 -80.25208 29667 ft 423 kts 56°
2026-04-23 18:47 33.69509 -80.22241 29195 ft 419 kts 56°
2026-04-23 18:47 33.71074 -80.19345 28724 ft 413 kts 52°
2026-04-23 18:48 33.73000 -80.16828 28241 ft 406 kts 38°
2026-04-23 18:48 33.75289 -80.14958 27784 ft 399 kts 28°
2026-04-23 18:48 33.77707 -80.13351 27319 ft 395 kts 27°
2026-04-23 18:48 33.80109 -80.11796 26855 ft 391 kts 27°
2026-04-23 18:49 33.82481 -80.10254 26399 ft 388 kts 27°
2026-04-23 18:49 33.84849 -80.08702 25945 ft 385 kts 27°
2026-04-23 18:49 33.87188 -80.07159 25497 ft 382 kts 27°
2026-04-23 18:49 33.89500 -80.05627 25052 ft 379 kts 28°
2026-04-23 18:50 33.91048 -80.04601 24753 ft 378 kts 28°
2026-04-23 18:50 33.94077 -80.02587 24162 ft 375 kts 28°
2026-04-23 18:50 33.96371 -80.01060 23720 ft 372 kts 28°
2026-04-23 18:50 33.98719 -79.99791 23249 ft 369 kts 14°
2026-04-23 18:51 34.01231 -79.99504 22847 ft 368 kts 354°
2026-04-23 18:51 34.03755 -80.00274 22834 ft 378 kts 336°
2026-04-23 18:51 34.06146 -80.01647 22857 ft 381 kts 333°
2026-04-23 18:51 34.08530 -80.03069 22848 ft 382 kts 333°
2026-04-23 18:52 34.10899 -80.04484 22451 ft 382 kts 333°
2026-04-23 18:52 34.13279 -80.05899 21982 ft 378 kts 333°
2026-04-23 18:52 34.15606 -80.07279 21538 ft 375 kts 333°
2026-04-23 18:52 34.17938 -80.08660 21092 ft 371 kts 334°
2026-04-23 18:53 34.20255 -80.10030 20651 ft 368 kts 334°
2026-04-23 18:53 34.22555 -80.11391 20192 ft 366 kts 334°
2026-04-23 18:53 34.24816 -80.12728 19748 ft 363 kts 334°
2026-04-23 18:53 34.27078 -80.14067 19307 ft 361 kts 334°
2026-04-23 18:54 34.29333 -80.15404 18864 ft 358 kts 334°
2026-04-23 18:54 34.31544 -80.16715 18432 ft 356 kts 334°
2026-04-23 18:54 34.33768 -80.18036 18031 ft 353 kts 334°
2026-04-23 18:54 34.35966 -80.19340 17581 ft 351 kts 334°
2026-04-23 18:55 34.38138 -80.20629 17156 ft 349 kts 334°
2026-04-23 18:55 34.40324 -80.21927 16740 ft 347 kts 334°
2026-04-23 18:55 34.42468 -80.23199 16324 ft 345 kts 334°
2026-04-23 18:55 34.44615 -80.24473 15904 ft 343 kts 334°
2026-04-23 18:56 34.46027 -80.25312 15639 ft 341 kts 334°
2026-04-23 18:56 34.48855 -80.26995 15095 ft 339 kts 333°
2026-04-23 18:56 34.50975 -80.28258 14692 ft 336 kts 333°
2026-04-23 18:56 34.53069 -80.29507 14276 ft 333 kts 333°
2026-04-23 18:57 34.55123 -80.30733 13865 ft 331 kts 333°
2026-04-23 18:57 34.57185 -80.31963 13450 ft 328 kts 333°
2026-04-23 18:57 34.59215 -80.33209 13041 ft 325 kts 330°
2026-04-23 18:57 34.61127 -80.34634 12622 ft 321 kts 325°
2026-04-23 18:58 34.62924 -80.36261 12191 ft 318 kts 321°
2026-04-23 18:58 34.64645 -80.37916 11780 ft 315 kts 321°
2026-04-23 18:58 34.66322 -80.39542 11482 ft 307 kts 321°
2026-04-23 18:58 34.67973 -80.41139 11354 ft 294 kts 321°
2026-04-23 18:59 34.69548 -80.42666 11143 ft 286 kts 320°
2026-04-23 18:59 34.71083 -80.44170 10768 ft 285 kts 320°
2026-04-23 18:59 34.72609 -80.45669 10405 ft 283 kts 320°
2026-04-23 18:59 34.74135 -80.47169 10045 ft 281 kts 320°
2026-04-23 19:00 34.75664 -80.48673 9690 ft 279 kts 320°
2026-04-23 19:00 34.77150 -80.50133 9344 ft 278 kts 320°
2026-04-23 19:00 34.78658 -80.51616 8997 ft 276 kts 320°
2026-04-23 19:00 34.80144 -80.53078 8655 ft 274 kts 320°
2026-04-23 19:01 34.81629 -80.54540 8308 ft 273 kts 320°
2026-04-23 19:01 34.83094 -80.55988 7965 ft 271 kts 320°
2026-04-23 19:01 34.84555 -80.57432 7624 ft 270 kts 320°
2026-04-23 19:01 34.86010 -80.58871 7290 ft 269 kts 320°
2026-04-23 19:02 34.86964 -80.59815 7069 ft 268 kts 320°
2026-04-23 19:02 34.88672 -80.61981 6583 ft 266 kts 294°
2026-04-23 19:02 34.88992 -80.64133 6317 ft 260 kts 264°
2026-04-23 19:02 34.88630 -80.66226 6237 ft 248 kts 256°
2026-04-23 19:03 34.88230 -80.68230 6153 ft 237 kts 257°
2026-04-23 19:03 34.87861 -80.70142 6067 ft 226 kts 257°
2026-04-23 19:03 34.87550 -80.71972 6033 ft 224 kts 261°
2026-04-23 19:03 34.87396 -80.73872 6032 ft 226 kts 269°
2026-04-23 19:04 34.87657 -80.75754 5954 ft 226 kts 289°
2026-04-23 19:04 34.88256 -80.77537 5948 ft 227 kts 293°
2026-04-23 19:04 34.88887 -80.79294 5944 ft 226 kts 292°
2026-04-23 19:04 34.89497 -80.81061 5944 ft 226 kts 291°
2026-04-23 19:05 34.90083 -80.82841 5947 ft 227 kts 291°
2026-04-23 19:05 34.90656 -80.84628 5949 ft 228 kts 290°
2026-04-23 19:05 34.91223 -80.86418 5946 ft 228 kts 290°
2026-04-23 19:05 34.91788 -80.88215 5944 ft 226 kts 290°
2026-04-23 19:06 34.92358 -80.89960 5934 ft 212 kts 297°
2026-04-23 19:06 34.93327 -80.91169 5865 ft 202 kts 338°
2026-04-23 19:06 34.94706 -80.91478 5656 ft 200 kts 356°
2026-04-23 19:06 34.96090 -80.91514 5385 ft 201 kts 358°
2026-04-23 19:07 34.97498 -80.91540 5094 ft 203 kts 357°
2026-04-23 19:07 34.98924 -80.91601 4849 ft 200 kts 356°
2026-04-23 19:07 35.00306 -80.91691 4520 ft 201 kts 355°
2026-04-23 19:07 35.01695 -80.91801 4175 ft 201 kts 355°
2026-04-23 19:08 35.03082 -80.91923 3959 ft 193 kts 354°
2026-04-23 19:08 35.04401 -80.92041 3765 ft 187 kts 354°
2026-04-23 19:08 35.05696 -80.92158 3518 ft 183 kts 354°
2026-04-23 19:08 35.06941 -80.92270 3256 ft 179 kts 354°
2026-04-23 19:09 35.08176 -80.92379 2984 ft 176 kts 354°
2026-04-23 19:09 35.09394 -80.92486 2699 ft 173 kts 354°
2026-04-23 19:09 35.10580 -80.92589 2475 ft 167 kts 354°
2026-04-23 19:09 35.11725 -80.92687 2258 ft 158 kts 353°
2026-04-23 19:10 35.12752 -80.92776 2062 ft 143 kts 354°
2026-04-23 19:10 35.13777 -80.92865 1905 ft 151 kts 353°
2026-04-23 19:10 35.14839 -80.92958 1719 ft 152 kts 353°
2026-04-23 19:10 35.15895 -80.93049 1524 ft 152 kts 353°
2026-04-23 19:11 35.16950 -80.93140 1324 ft 151 kts 354°
2026-04-23 19:11 35.17995 -80.93229 1130 ft 151 kts 354°
2026-04-23 19:11 35.19048 -80.93321 938 ft 150 kts 354°
2026-04-23 19:11 35.20077 -80.93408 752 ft 149 kts 354°
2026-04-23 19:12 35.20755 -80.93467 722 ft 139 kts 354°
2026-04-23 19:12 35.21581 -80.93537 732 ft 38 kts 355°
2026-04-23 19:12 35.21737 -80.93583 734 ft 12 kts 311°
2026-04-23 19:12 35.21703 -80.93639 732 ft 10 kts 228°
2026-04-23 19:13 35.21643 -80.93716 730 ft 13 kts 219°
2026-04-23 19:13 35.21656 -80.93803 729 ft 12 kts 314°
2026-04-23 19:13 35.21721 -80.93889 728 ft 14 kts 314°
2026-04-23 19:13 35.21792 -80.93978 728 ft 13 kts 312°
2026-04-23 19:14 35.21760 -80.94078 725 ft 15 kts 227°
2026-04-23 19:14 35.21682 -80.94185 722 ft 15 kts 237°
2026-04-23 19:14 35.21682 -80.94297 720 ft 11 kts 276°
2026-04-23 19:14 35.21722 -80.94344 720 ft 9 kts 356°
2026-04-23 19:15 35.21790 -80.94350 721 ft 9 kts 352°
2026-04-23 19:15 35.21840 -80.94366 722 ft 4 kts 358°
2026-04-23 19:15 35.21855 -80.94336 722 ft 5 kts 83°
2026-04-23 19:15 35.21861 -80.94302 723 ft 2 kts 72°
2026-04-23 19:16 35.21865 -80.94288 723 ft 0 kts 72°
2026-04-23 19:16 35.21865 -80.94286 723 ft 0 kts 72°